Regional Weather Roundup
Issued by NWS Goodland, KS

Home | Current Version | Previous Version | Graphics & Text | Print | Product List | Glossary Off
Versions: 1 2 3 4 5 6 7 8 9 10 11 12 13 14 15 16 17 18 19 20 21 22 23 24 25 26 27 28 29 30 31 32 33 34 35 36 37 38 39 40 41 42 43 44 45 46 47 48 49 50

000
ASUS43 KGLD 072208
RWRGLD

GOODLAND FORECAST AREA HOURLY WEATHER ROUNDUP
NATIONAL WEATHER SERVICE GOODLAND KS
400 PM MDT TUE JUL 07 2015

...OFFICIAL OBSERVATIONS...

CITY           SKY/WX    TMP DP  RH WIND       PRES   REMARKS
GOODLAND KS    SUNNY     76  43  30 SE8       30.13F
HILL CITY KS   MOSUNNY   78  48  34 E14       30.10F
IMPERIAL NEB   CLOUDY    74  46  36 E13       30.12F
MCCOOK NEB     MOSUNNY   77  50  38 E13       30.12F
AKRON CO       MOSUNNY   73  48  41 SE17G25   30.14F
BURLINGTON CO  MOSUNNY   75  41  29 SE16G24   30.14F
LIMON CO       CLOUDY    67  48  50 S13G21    30.18S
$$

...UNOFFICIAL OBSERVATIONS...

CITY           SKY/WX    TMP DP  RH WIND       PRES   REMARKS
COLBY KS       SUNNY     79  50  36 E10G18    30.13F
GOVE KS          N/A     77  32  19 MISG        N/A
NORTON KS      SUNNY     75  39  27 NE9       30.10F
SHARON SPRINGS   N/A     76  47  35 SE8G17      N/A
KIT CARSON CO    N/A     75  47  37 MISG        N/A
YUMA CO          N/A     74  51  43 CALM        N/A
$$



USA.gov is the U.S. government's official web portal to all federal, state and local government web resources and services.